Time,TemperatureF,DewpointF,PressureIn,WindDirection,WindDirectionDegrees,WindSpeedMPH,WindSpeedGustMPH,Humidity,HourlyPrecipIn,Conditions,Clouds,dailyrainin,SoftwareType,DateUTC
2013-07-05 00:00:00,70.4,68.9,30.08,SW,221,0.0,4.0,95,0.00,,,0.00,Wunderground v.1.15,2013-07-05 04:00:00,
2013-07-05 00:05:00,70.4,68.9,30.08,SW,221,0.0,4.0,95,0.00,,,0.00,Wunderground v.1.15,2013-07-05 04:05:00,
2013-07-05 00:10:00,70.2,68.7,30.08,SW,221,0.0,4.0,95,0.00,,,0.00,Wunderground v.1.15,2013-07-05 04:10:00,
2013-07-05 00:15:00,69.9,68.4,30.09,SW,221,0.0,4.0,95,0.00,,,0.00,Wunderground v.1.15,2013-07-05 04:15:00,
2013-07-05 00:20:00,69.8,68.3,30.09,SW,221,0.0,4.0,95,0.00,,,0.00,Wunderground v.1.15,2013-07-05 04:20:00,
2013-07-05 00:25:00,69.8,68.6,30.09,SW,221,0.0,4.0,96,0.00,,,0.00,Wunderground v.1.15,2013-07-05 04:25:00,
2013-07-05 00:30:00,69.7,68.5,30.08,SW,221,0.0,4.0,96,0.00,,,0.00,Wunderground v.1.15,2013-07-05 04:30:00,
2013-07-05 00:35:00,69.6,68.4,30.08,SW,221,0.0,4.0,96,0.00,,,0.00,Wunderground v.1.15,2013-07-05 04:35:00,
2013-07-05 00:40:00,69.5,68.3,30.09,SW,221,0.0,4.0,96,0.00,,,0.00,Wunderground v.1.15,2013-07-05 04:40:00,
2013-07-05 00:45:00,69.5,68.3,30.09,SW,221,0.0,4.0,96,0.00,,,0.00,Wunderground v.1.15,2013-07-05 04:45:00,
2013-07-05 00:55:00,69.6,68.7,30.09,SW,221,0.0,4.0,97,0.00,,,0.00,Wunderground v.1.15,2013-07-05 04:55:00,
2013-07-05 01:00:00,69.7,68.8,30.09,SW,221,0.0,4.0,97,0.00,,,0.00,Wunderground v.1.15,2013-07-05 05:00:00,
2013-07-05 01:05:00,69.5,68.3,30.09,SW,221,0.0,4.0,96,0.00,,,0.00,Wunderground v.1.15,2013-07-05 05:05:00,
2013-07-05 01:10:00,69.5,68.3,30.09,SW,221,0.0,4.0,96,0.00,,,0.00,Wunderground v.1.15,2013-07-05 05:10:00,
2013-07-05 01:15:00,69.5,68.3,30.09,SW,221,0.0,4.0,96,0.00,,,0.00,Wunderground v.1.15,2013-07-05 05:15:00,
2013-07-05 01:20:00,69.5,68.6,30.09,SW,221,0.0,4.0,97,0.00,,,0.00,Wunderground v.1.15,2013-07-05 05:20:00,
2013-07-05 01:30:00,69.4,68.2,30.09,SW,221,0.0,4.0,96,0.00,,,0.00,Wunderground v.1.15,2013-07-05 05:30:00,
2013-07-05 01:35:00,69.3,68.4,30.08,SW,220,0.0,4.0,97,0.00,,,0.00,Wunderground v.1.15,2013-07-05 05:35:00,
2013-07-05 01:40:00,69.1,68.2,30.08,SW,221,0.0,4.0,97,0.00,,,0.00,Wunderground v.1.15,2013-07-05 05:40:00,
2013-07-05 01:50:00,69.1,68.2,30.08,SW,221,0.0,4.0,97,0.00,,,0.00,Wunderground v.1.15,2013-07-05 05:50:00,
2013-07-05 01:55:00,69.0,68.1,30.08,SW,221,0.0,4.0,97,0.00,,,0.00,Wunderground v.1.15,2013-07-05 05:55:00,
2013-07-05 02:00:00,69.0,68.1,30.08,SW,221,0.0,4.0,97,0.00,,,0.00,Wunderground v.1.15,2013-07-05 06:00:00,
2013-07-05 02:10:00,68.9,68.0,30.08,SW,221,0.0,4.0,97,0.00,,,0.00,Wunderground v.1.15,2013-07-05 06:10:00,
2013-07-05 02:15:00,68.9,68.0,30.08,SW,221,0.0,4.0,97,0.00,,,0.00,Wunderground v.1.15,2013-07-05 06:15:00,
2013-07-05 02:20:00,68.8,67.9,30.08,SW,221,0.0,4.0,97,0.00,,,0.00,Wunderground v.1.15,2013-07-05 06:20:00,
2013-07-05 02:25:00,68.7,67.8,30.08,SW,221,0.0,4.0,97,0.00,,,0.00,Wunderground v.1.15,2013-07-05 06:25:00,
2013-07-05 02:35:00,68.7,68.1,30.08,SW,221,0.0,4.0,98,0.00,,,0.00,Wunderground v.1.15,2013-07-05 06:35:00,
2013-07-05 02:40:00,68.9,68.3,30.08,SW,221,0.0,4.0,98,0.00,,,0.00,Wunderground v.1.15,2013-07-05 06:40:00,
2013-07-05 02:45:00,68.7,67.8,30.08,SW,221,0.0,4.0,97,0.00,,,0.00,Wunderground v.1.15,2013-07-05 06:45:00,
2013-07-05 02:50:00,68.5,67.9,30.08,SW,221,0.0,4.0,98,0.00,,,0.00,Wunderground v.1.15,2013-07-05 06:50:00,
2013-07-05 02:55:00,68.5,67.9,30.08,SW,221,0.0,4.0,98,0.00,,,0.00,Wunderground v.1.15,2013-07-05 06:55:00,
2013-07-05 03:00:00,68.6,68.0,30.09,SW,221,0.0,4.0,98,0.00,,,0.00,Wunderground v.1.15,2013-07-05 07:00:00,
2013-07-05 03:10:00,69.1,68.5,30.09,SW,221,0.0,4.0,98,0.00,,,0.00,Wunderground v.1.15,2013-07-05 07:10:00,
2013-07-05 03:15:00,69.2,68.6,30.09,SW,221,0.0,4.0,98,0.00,,,0.00,Wunderground v.1.15,2013-07-05 07:15:00,
2013-07-05 03:20:00,69.0,68.4,30.09,SW,221,0.0,4.0,98,0.00,,,0.00,Wunderground v.1.15,2013-07-05 07:20:00,
2013-07-05 03:25:00,68.8,68.2,30.09,SW,221,0.0,4.0,98,0.00,,,0.00,Wunderground v.1.15,2013-07-05 07:25:00,
2013-07-05 03:30:00,68.6,68.0,30.09,SW,221,0.0,4.0,98,0.00,,,0.00,Wunderground v.1.15,2013-07-05 07:30:00,
2013-07-05 03:40:00,68.4,67.8,30.09,SW,221,0.0,4.0,98,0.00,,,0.00,Wunderground v.1.15,2013-07-05 07:40:00,
2013-07-05 03:45:00,68.3,67.7,30.09,SW,221,0.0,4.0,98,0.00,,,0.00,Wunderground v.1.15,2013-07-05 07:45:00,
2013-07-05 03:50:00,68.4,67.8,30.10,SW,221,0.0,4.0,98,0.00,,,0.00,Wunderground v.1.15,2013-07-05 07:50:00,
2013-07-05 04:00:00,68.4,67.8,30.10,SW,221,0.0,4.0,98,0.00,,,0.00,Wunderground v.1.15,2013-07-05 08:00:00,
2013-07-05 04:05:00,68.4,67.8,30.10,SW,221,0.0,4.0,98,0.00,,,0.00,Wunderground v.1.15,2013-07-05 08:05:00,
2013-07-05 04:10:00,68.4,67.8,30.10,SW,221,0.0,4.0,98,0.00,,,0.00,Wunderground v.1.15,2013-07-05 08:10:00,
2013-07-05 04:20:00,68.2,67.6,30.10,SW,221,0.0,4.0,98,0.00,,,0.00,Wunderground v.1.15,2013-07-05 08:20:00,
2013-07-05 04:25:00,68.2,67.6,30.10,SW,221,0.0,4.0,98,0.00,,,0.00,Wunderground v.1.15,2013-07-05 08:25:00,
2013-07-05 04:30:00,68.2,67.6,30.10,SW,221,0.0,4.0,98,0.00,,,0.00,Wunderground v.1.15,2013-07-05 08:30:00,
2013-07-05 04:35:00,68.1,67.5,30.10,SW,221,0.0,4.0,98,0.00,,,0.00,Wunderground v.1.15,2013-07-05 08:35:00,
2013-07-05 04:40:00,67.9,67.3,30.10,SW,221,0.0,4.0,98,0.00,,,0.00,Wunderground v.1.15,2013-07-05 08:40:00,
2013-07-05 04:50:00,67.9,67.3,30.10,SW,221,0.0,4.0,98,0.00,,,0.00,Wunderground v.1.15,2013-07-05 08:50:00,
2013-07-05 04:55:00,67.9,67.6,30.10,SW,221,0.0,4.0,99,0.00,,,0.00,Wunderground v.1.15,2013-07-05 08:55:00,
2013-07-05 05:00:00,68.1,67.8,30.10,SW,221,0.0,4.0,99,0.00,,,0.00,Wunderground v.1.15,2013-07-05 09:00:00,
2013-07-05 05:05:00,68.2,67.9,30.11,SW,221,0.0,4.0,99,0.00,,,0.00,Wunderground v.1.15,2013-07-05 09:05:00,
2013-07-05 05:10:00,68.0,67.7,30.11,SW,221,0.0,4.0,99,0.00,,,0.00,Wunderground v.1.15,2013-07-05 09:10:00,
2013-07-05 05:20:00,67.9,67.6,30.11,SW,221,0.0,4.0,99,0.00,,,0.00,Wunderground v.1.15,2013-07-05 09:20:00,
2013-07-05 05:30:00,68.2,67.9,30.11,SW,221,0.0,4.0,99,0.00,,,0.00,Wunderground v.1.15,2013-07-05 09:30:00,
2013-07-05 05:35:00,68.1,67.8,30.11,SW,221,0.0,4.0,99,0.00,,,0.00,Wunderground v.1.15,2013-07-05 09:35:00,
2013-07-05 05:40:00,68.3,68.0,30.11,SW,221,0.0,4.0,99,0.00,,,0.00,Wunderground v.1.15,2013-07-05 09:40:00,
2013-07-05 05:45:00,68.5,68.2,30.11,SW,221,0.0,4.0,99,0.00,,,0.00,Wunderground v.1.15,2013-07-05 09:45:00,
2013-07-05 05:55:00,68.8,68.5,30.11,SW,221,0.0,4.0,99,0.00,,,0.00,Wunderground v.1.15,2013-07-05 09:55:00,
2013-07-05 06:10:00,70.2,69.9,30.12,SW,221,0.0,4.0,99,0.00,,,0.00,Wunderground v.1.15,2013-07-05 10:10:00,
2013-07-05 06:15:00,70.6,70.3,30.12,SW,221,0.0,4.0,99,0.00,,,0.00,Wunderground v.1.15,2013-07-05 10:15:00,
2013-07-05 06:20:00,71.1,70.8,30.12,SW,221,0.0,4.0,99,0.00,,,0.00,Wunderground v.1.15,2013-07-05 10:20:00,
2013-07-05 06:25:00,71.4,71.1,30.12,SW,221,0.0,4.0,99,0.00,,,0.00,Wunderground v.1.15,2013-07-05 10:25:00,
2013-07-05 06:35:00,72.1,71.8,30.12,SW,221,0.0,4.0,99,0.00,,,0.00,Wunderground v.1.15,2013-07-05 10:35:00,
2013-07-05 06:45:00,72.7,72.1,30.13,SW,221,0.0,4.0,98,0.00,,,0.00,Wunderground v.1.15,2013-07-05 10:45:00,
2013-07-05 06:50:00,73.0,72.1,30.12,SW,218,0.0,4.0,97,0.00,,,0.00,Wunderground v.1.15,2013-07-05 10:50:00,
2013-07-05 07:00:00,73.5,72.3,30.13,SW,218,0.0,4.0,96,0.00,,,0.00,Wunderground v.1.15,2013-07-05 11:00:00,
2013-07-05 07:05:00,73.9,72.7,30.13,SW,219,0.0,4.0,96,0.00,,,0.00,Wunderground v.1.15,2013-07-05 11:05:00,
2013-07-05 07:10:00,74.4,73.2,30.13,SW,219,0.0,4.0,96,0.00,,,0.00,Wunderground v.1.15,2013-07-05 11:10:00,
2013-07-05 07:20:00,75.5,73.0,30.13,WNW,296,0.0,4.0,92,0.00,,,0.00,Wunderground v.1.15,2013-07-05 11:20:00,
2013-07-05 07:25:00,75.9,73.1,30.13,NNW,328,0.0,4.0,91,0.00,,,0.00,Wunderground v.1.15,2013-07-05 11:25:00,
2013-07-05 07:30:00,76.4,73.2,30.13,NW,309,0.0,4.0,90,0.00,,,0.00,Wunderground v.1.15,2013-07-05 11:30:00,
2013-07-05 07:50:00,77.7,73.2,30.14,West,271,4.0,4.0,86,0.00,,,0.00,Wunderground v.1.15,2013-07-05 11:50:00,
2013-07-05 07:55:00,78.0,72.8,30.14,WNW,298,4.0,4.0,84,0.00,,,0.00,Wunderground v.1.15,2013-07-05 11:55:00,
2013-07-05 08:00:00,78.5,72.9,30.14,West,275,3.0,4.0,83,0.00,,,0.00,Wunderground v.1.15,2013-07-05 12:00:00,
2013-07-05 08:10:00,78.6,72.6,30.14,WNW,286,5.0,5.0,82,0.00,,,0.00,Wunderground v.1.15,2013-07-05 12:10:00,
2013-07-05 08:15:00,78.8,72.8,30.13,NW,309,3.0,5.0,82,0.00,,,0.00,Wunderground v.1.15,2013-07-05 12:15:00,
2013-07-05 08:20:00,79.3,72.6,30.13,West,277,3.0,5.0,80,0.00,,,0.00,Wunderground v.1.15,2013-07-05 12:20:00,
2013-07-05 08:30:00,80.1,72.2,30.13,NW,315,3.0,6.0,77,0.00,,,0.00,Wunderground v.1.15,2013-07-05 12:30:00,
2013-07-05 08:40:00,81.0,72.3,30.13,WNW,294,4.0,5.0,75,0.00,,,0.00,Wunderground v.1.15,2013-07-05 12:40:00,
2013-07-05 08:45:00,81.3,71.8,30.13,WNW,290,4.0,6.0,73,0.00,,,0.00,Wunderground v.1.15,2013-07-05 12:45:00,
2013-07-05 08:50:00,81.6,71.7,30.13,WNW,303,5.0,5.0,72,0.00,,,0.00,Wunderground v.1.15,2013-07-05 12:50:00,
2013-07-05 08:55:00,81.8,71.5,30.13,NW,311,6.0,10.0,71,0.00,,,0.00,Wunderground v.1.15,2013-07-05 12:55:00,
2013-07-05 09:00:00,81.8,71.5,30.13,WNW,286,7.0,7.0,71,0.00,,,0.00,Wunderground v.1.15,2013-07-05 13:00:00,
2013-07-05 09:05:00,82.0,71.2,30.12,WSW,248,7.0,7.0,70,0.00,,,0.00,Wunderground v.1.15,2013-07-05 13:05:00,
2013-07-05 09:20:00,82.6,71.0,30.12,WNW,284,6.0,9.0,68,0.00,,,0.00,Wunderground v.1.15,2013-07-05 13:20:00,
2013-07-05 09:25:00,82.6,71.4,30.12,WSW,246,7.0,9.0,69,0.00,,,0.00,Wunderground v.1.15,2013-07-05 13:25:00,
2013-07-05 09:30:00,82.8,70.7,30.12,WNW,284,8.0,16.0,67,0.00,,,0.00,Wunderground v.1.15,2013-07-05 13:30:00,
2013-07-05 09:40:00,83.2,71.1,30.12,West,261,7.0,7.0,67,0.00,,,0.00,Wunderground v.1.15,2013-07-05 13:40:00,
2013-07-05 09:45:00,83.4,71.3,30.12,WSW,253,7.0,7.0,67,0.00,,,0.00,Wunderground v.1.15,2013-07-05 13:45:00,
2013-07-05 09:50:00,83.8,71.2,30.12,NNW,339,6.0,6.0,66,0.00,,,0.00,Wunderground v.1.15,2013-07-05 13:50:00,
2013-07-05 09:55:00,83.9,71.3,30.12,WSW,240,6.0,10.0,66,0.00,,,0.00,Wunderground v.1.15,2013-07-05 13:55:00,
2013-07-05 10:00:00,84.1,71.5,30.12,WNW,291,7.0,7.0,66,0.00,,,0.00,Wunderground v.1.15,2013-07-05 14:00:00,
2013-07-05 10:05:00,84.3,70.8,30.12,West,261,8.0,9.0,64,0.00,,,0.00,Wunderground v.1.15,2013-07-05 14:05:00,
2013-07-05 10:20:00,85.0,71.0,30.12,West,272,6.0,12.0,63,0.00,,,0.00,Wunderground v.1.15,2013-07-05 14:20:00,
2013-07-05 10:25:00,85.1,71.5,30.11,NW,324,7.0,12.0,64,0.00,,,0.00,Wunderground v.1.15,2013-07-05 14:25:00,
2013-07-05 10:35:00,85.7,71.2,30.12,West,273,5.0,17.0,62,0.00,,,0.00,Wunderground v.1.15,2013-07-05 14:35:00,
2013-07-05 10:45:00,85.5,71.0,30.12,West,270,9.0,9.0,62,0.00,,,0.00,Wunderground v.1.15,2013-07-05 14:45:00,
2013-07-05 10:55:00,85.9,70.4,30.11,West,271,8.0,8.0,60,0.00,,,0.00,Wunderground v.1.15,2013-07-05 14:55:00,
2013-07-05 11:00:00,86.0,70.0,30.12,NW,313,8.0,8.0,59,0.00,,,0.00,Wunderground v.1.15,2013-07-05 15:00:00,
2013-07-05 11:05:00,86.0,70.0,30.11,WNW,299,7.0,8.0,59,0.00,,,0.00,Wunderground v.1.15,2013-07-05 15:05:00,
2013-07-05 11:10:00,86.4,69.9,30.11,WSW,250,6.0,6.0,58,0.00,,,0.00,Wunderground v.1.15,2013-07-05 15:10:00,
2013-07-05 11:15:00,86.7,70.7,30.11,SSW,211,5.0,6.0,59,0.00,,,0.00,Wunderground v.1.15,2013-07-05 15:15:00,
2013-07-05 11:20:00,86.8,71.2,30.11,WSW,256,5.0,9.0,60,0.00,,,0.00,Wunderground v.1.15,2013-07-05 15:20:00,
2013-07-05 11:30:00,86.0,71.0,30.11,NW,311,7.0,8.0,61,0.00,,,0.00,Wunderground v.1.15,2013-07-05 15:30:00,
2013-07-05 11:35:00,86.3,70.3,30.11,SW,222,6.0,8.0,59,0.00,,,0.00,Wunderground v.1.15,2013-07-05 15:35:00,
2013-07-05 11:40:00,86.5,71.5,30.11,SSW,199,5.0,7.0,61,0.00,,,0.00,Wunderground v.1.15,2013-07-05 15:40:00,
2013-07-05 11:50:00,86.7,72.1,30.10,SW,222,7.0,7.0,62,0.00,,,0.00,Wunderground v.1.15,2013-07-05 15:50:00,
2013-07-05 11:55:00,87.0,71.9,30.10,SSW,199,6.0,7.0,61,0.00,,,0.00,Wunderground v.1.15,2013-07-05 15:55:00,
2013-07-05 12:00:00,87.0,72.4,30.10,SSE,168,5.0,5.0,62,0.00,,,0.00,Wunderground v.1.15,2013-07-05 16:00:00,
2013-07-05 12:05:00,86.8,71.7,30.10,WSW,242,5.0,11.0,61,0.00,,,0.00,Wunderground v.1.15,2013-07-05 16:05:00,
2013-07-05 12:10:00,86.5,71.9,30.10,WSW,245,7.0,7.0,62,0.00,,,0.00,Wunderground v.1.15,2013-07-05 16:10:00,
2013-07-05 12:15:00,86.3,72.7,30.10,West,263,8.0,8.0,64,0.00,,,0.00,Wunderground v.1.15,2013-07-05 16:15:00,
2013-07-05 12:20:00,86.6,72.5,30.10,West,269,8.0,8.0,63,0.00,,,0.00,Wunderground v.1.15,2013-07-05 16:20:00,
2013-07-05 12:25:00,86.8,73.6,30.10,SW,219,7.0,8.0,65,0.00,,,0.00,Wunderground v.1.15,2013-07-05 16:25:00,
2013-07-05 12:35:00,86.3,72.2,30.10,SW,232,8.0,10.0,63,0.00,,,0.00,Wunderground v.1.15,2013-07-05 16:35:00,
2013-07-05 12:40:00,86.2,73.0,30.10,SSW,207,8.0,8.0,65,0.00,,,0.00,Wunderground v.1.15,2013-07-05 16:40:00,
2013-07-05 12:45:00,86.5,73.8,30.10,West,271,8.0,9.0,66,0.00,,,0.00,Wunderground v.1.15,2013-07-05 16:45:00,
2013-07-05 12:50:00,86.6,73.9,30.10,SW,222,8.0,8.0,66,0.00,,,0.00,Wunderground v.1.15,2013-07-05 16:50:00,
2013-07-05 12:55:00,86.5,73.8,30.10,WSW,252,9.0,9.0,66,0.00,,,0.00,Wunderground v.1.15,2013-07-05 16:55:00,
2013-07-05 13:00:00,86.4,73.2,30.10,WSW,252,9.0,9.0,65,0.00,,,0.00,Wunderground v.1.15,2013-07-05 17:00:00,
2013-07-05 13:10:00,87.3,73.6,30.09,WSW,254,7.0,12.0,64,0.00,,,0.00,Wunderground v.1.15,2013-07-05 17:10:00,
2013-07-05 13:15:00,87.3,72.7,30.09,SSW,197,8.0,12.0,62,0.00,,,0.00,Wunderground v.1.15,2013-07-05 17:15:00,
2013-07-05 13:20:00,87.4,73.3,30.08,SW,236,8.0,9.0,63,0.00,,,0.00,Wunderground v.1.15,2013-07-05 17:20:00,
2013-07-05 13:25:00,87.4,73.3,30.08,SSW,213,8.0,9.0,63,0.00,,,0.00,Wunderground v.1.15,2013-07-05 17:25:00,
2013-07-05 13:30:00,87.4,73.3,30.08,WSW,248,8.0,8.0,63,0.00,,,0.00,Wunderground v.1.15,2013-07-05 17:30:00,
2013-07-05 13:40:00,87.2,73.1,30.08,SW,223,8.0,8.0,63,0.00,,,0.00,Wunderground v.1.15,2013-07-05 17:40:00,
2013-07-05 13:45:00,87.9,73.7,30.08,SSW,207,8.0,8.0,63,0.00,,,0.00,Wunderground v.1.15,2013-07-05 17:45:00,
2013-07-05 13:50:00,87.3,72.7,30.08,SW,223,8.0,8.0,62,0.00,,,0.00,Wunderground v.1.15,2013-07-05 17:50:00,
2013-07-05 13:55:00,88.1,73.9,30.08,SW,215,7.0,8.0,63,0.00,,,0.00,Wunderground v.1.15,2013-07-05 17:55:00,
2013-07-05 14:00:00,88.4,73.7,30.08,SSW,204,6.0,8.0,62,0.00,,,0.00,Wunderground v.1.15,2013-07-05 18:00:00,
2013-07-05 14:05:00,88.2,73.5,30.08,SSW,196,6.0,8.0,62,0.00,,,0.00,Wunderground v.1.15,2013-07-05 18:05:00,
2013-07-05 14:15:00,88.7,73.5,30.08,SW,225,6.0,6.0,61,0.00,,,0.00,Wunderground v.1.15,2013-07-05 18:15:00,
2013-07-05 14:20:00,88.8,74.6,30.08,SSW,202,6.0,6.0,63,0.00,,,0.00,Wunderground v.1.15,2013-07-05 18:20:00,
2013-07-05 14:25:00,88.4,74.7,30.08,South,186,5.0,7.0,64,0.00,,,0.00,Wunderground v.1.15,2013-07-05 18:25:00,
2013-07-05 14:30:00,88.2,74.0,30.07,SSW,205,6.0,6.0,63,0.00,,,0.00,Wunderground v.1.15,2013-07-05 18:30:00,
2013-07-05 14:35:00,88.3,74.6,30.07,South,175,6.0,7.0,64,0.00,,,0.00,Wunderground v.1.15,2013-07-05 18:35:00,
2013-07-05 14:45:00,89.2,75.4,30.07,SSW,193,5.0,5.0,64,0.00,,,0.00,Wunderground v.1.15,2013-07-05 18:45:00,
2013-07-05 14:50:00,89.1,75.3,30.07,SSW,192,5.0,5.0,64,0.00,,,0.00,Wunderground v.1.15,2013-07-05 18:50:00,
2013-07-05 14:55:00,88.5,74.3,30.07,SSW,201,6.0,7.0,63,0.00,,,0.00,Wunderground v.1.15,2013-07-05 18:55:00,
2013-07-05 15:00:00,87.9,75.1,30.07,South,190,6.0,6.0,66,0.00,,,0.00,Wunderground v.1.15,2013-07-05 19:00:00,
2013-07-05 15:05:00,87.6,75.3,30.06,SSW,205,7.0,8.0,67,0.00,,,0.00,Wunderground v.1.15,2013-07-05 19:05:00,
2013-07-05 15:15:00,87.7,74.9,30.06,SSW,198,6.0,9.0,66,0.00,,,0.00,Wunderground v.1.15,2013-07-05 19:15:00,
2013-07-05 15:20:00,86.9,74.2,30.06,WSW,250,8.0,14.0,66,0.00,,,0.00,Wunderground v.1.15,2013-07-05 19:20:00,
2013-07-05 15:25:00,86.4,75.5,30.06,SW,234,9.0,14.0,70,0.00,,,0.00,Wunderground v.1.15,2013-07-05 19:25:00,
2013-07-05 15:35:00,86.3,74.9,30.06,SW,216,8.0,8.0,69,0.00,,,0.00,Wunderground v.1.15,2013-07-05 19:35:00,
2013-07-05 15:40:00,85.9,75.4,30.06,South,186,8.0,8.0,71,0.00,,,0.00,Wunderground v.1.15,2013-07-05 19:40:00,
2013-07-05 15:45:00,86.3,75.4,30.06,SSW,205,7.0,10.0,70,0.00,,,0.00,Wunderground v.1.15,2013-07-05 19:45:00,
2013-07-05 15:55:00,86.5,76.0,30.05,West,277,7.0,10.0,71,0.00,,,0.00,Wunderground v.1.15,2013-07-05 19:55:00,
2013-07-05 16:00:00,87.0,76.5,30.05,WSW,252,7.0,8.0,71,0.00,,,0.00,Wunderground v.1.15,2013-07-05 20:00:00,
2013-07-05 16:05:00,87.1,75.7,30.05,SSW,198,6.0,8.0,69,0.00,,,0.00,Wunderground v.1.15,2013-07-05 20:05:00,
2013-07-05 16:10:00,86.4,75.5,30.05,WSW,240,7.0,7.0,70,0.00,,,0.00,Wunderground v.1.15,2013-07-05 20:10:00,
2013-07-05 16:15:00,86.7,76.2,30.05,SSW,196,7.0,7.0,71,0.00,,,0.00,Wunderground v.1.15,2013-07-05 20:15:00,
2013-07-05 16:25:00,86.0,75.5,30.04,SSW,213,7.0,9.0,71,0.00,,,0.00,Wunderground v.1.15,2013-07-05 20:25:00,
2013-07-05 16:30:00,85.9,75.4,30.04,SSW,200,7.0,7.0,71,0.00,,,0.00,Wunderground v.1.15,2013-07-05 20:30:00,
2013-07-05 16:35:00,85.9,75.8,30.04,WSW,243,7.0,7.0,72,0.00,,,0.00,Wunderground v.1.15,2013-07-05 20:35:00,
2013-07-05 16:40:00,85.6,75.1,30.04,WSW,238,8.0,8.0,71,0.00,,,0.00,Wunderground v.1.15,2013-07-05 20:40:00,
2013-07-05 16:45:00,85.6,75.1,30.04,SW,214,7.0,8.0,71,0.00,,,0.00,Wunderground v.1.15,2013-07-05 20:45:00,
2013-07-05 16:50:00,85.5,75.4,30.04,WSW,258,7.0,9.0,72,0.00,,,0.00,Wunderground v.1.15,2013-07-05 20:50:00,
2013-07-05 17:00:00,84.5,74.9,30.04,SW,216,9.0,9.0,73,0.00,,,0.00,Wunderground v.1.15,2013-07-05 21:00:00,
2013-07-05 17:05:00,84.3,74.7,30.04,WSW,242,10.0,10.0,73,0.00,,,0.00,Wunderground v.1.15,2013-07-05 21:05:00,
2013-07-05 17:10:00,84.3,74.7,30.04,SW,229,9.0,11.0,73,0.00,,,0.00,Wunderground v.1.15,2013-07-05 21:10:00,
2013-07-05 17:15:00,84.2,75.0,30.03,WSW,247,9.0,12.0,74,0.00,,,0.00,Wunderground v.1.15,2013-07-05 21:15:00,
2013-07-05 17:20:00,84.2,74.6,30.03,SW,228,10.0,10.0,73,0.00,,,0.00,Wunderground v.1.15,2013-07-05 21:20:00,
2013-07-05 17:30:00,84.7,74.7,30.03,SW,229,7.0,7.0,72,0.00,,,0.00,Wunderground v.1.15,2013-07-05 21:30:00,
2013-07-05 17:35:00,84.9,75.3,30.03,WSW,238,6.0,7.0,73,0.00,,,0.00,Wunderground v.1.15,2013-07-05 21:35:00,
2013-07-05 17:40:00,84.8,74.3,30.03,SW,223,6.0,6.0,71,0.00,,,0.00,Wunderground v.1.15,2013-07-05 21:40:00,
2013-07-05 17:45:00,84.3,74.3,30.03,SSW,198,8.0,12.0,72,0.00,,,0.00,Wunderground v.1.15,2013-07-05 21:45:00,
2013-07-05 17:50:00,83.5,73.9,30.03,SSW,200,10.0,10.0,73,0.00,,,0.00,Wunderground v.1.15,2013-07-05 21:50:00,
2013-07-05 17:55:00,83.1,73.5,30.03,SW,216,10.0,12.0,73,0.00,,,0.00,Wunderground v.1.15,2013-07-05 21:55:00,
2013-07-05 18:05:00,82.6,73.9,30.03,South,184,10.0,12.0,75,0.00,,,0.00,Wunderground v.1.15,2013-07-05 22:05:00,
2013-07-05 18:10:00,82.3,74.0,30.03,SSW,212,10.0,10.0,76,0.00,,,0.00,Wunderground v.1.15,2013-07-05 22:10:00,
2013-07-05 18:15:00,82.3,74.0,30.03,South,180,9.0,10.0,76,0.00,,,0.00,Wunderground v.1.15,2013-07-05 22:15:00,
2013-07-05 18:20:00,82.7,74.0,30.03,SW,234,7.0,7.0,75,0.00,,,0.00,Wunderground v.1.15,2013-07-05 22:20:00,
2013-07-05 18:30:00,82.1,73.8,30.02,SSE,149,8.0,8.0,76,0.00,,,0.00,Wunderground v.1.15,2013-07-05 22:30:00,
2013-07-05 18:35:00,81.9,74.0,30.02,SSW,212,9.0,9.0,77,0.00,,,0.00,Wunderground v.1.15,2013-07-05 22:35:00,
2013-07-05 18:40:00,81.8,73.9,30.02,WSW,243,7.0,7.0,77,0.00,,,0.00,Wunderground v.1.15,2013-07-05 22:40:00,
2013-07-05 18:45:00,81.6,74.1,30.02,SSW,209,6.0,7.0,78,0.00,,,0.00,Wunderground v.1.15,2013-07-05 22:45:00,
2013-07-05 18:50:00,81.0,73.5,30.02,SW,221,6.0,6.0,78,0.00,,,0.00,Wunderground v.1.15,2013-07-05 22:50:00,
2013-07-05 18:55:00,80.7,73.6,30.02,SSW,213,5.0,6.0,79,0.00,,,0.00,Wunderground v.1.15,2013-07-05 22:55:00,
2013-07-05 19:00:00,80.5,73.4,30.02,SW,221,4.0,4.0,79,0.00,,,0.00,Wunderground v.1.15,2013-07-05 23:00:00,
2013-07-05 19:10:00,80.0,73.3,30.01,SSW,206,2.0,4.0,80,0.00,,,0.00,Wunderground v.1.15,2013-07-05 23:10:00,
2013-07-05 19:15:00,79.7,73.3,30.01,SSW,201,3.0,4.0,81,0.00,,,0.00,Wunderground v.1.15,2013-07-05 23:15:00,
2013-07-05 19:20:00,79.6,72.9,30.02,SSW,200,2.0,4.0,80,0.00,,,0.00,Wunderground v.1.15,2013-07-05 23:20:00,
2013-07-05 19:25:00,79.5,72.8,30.02,SSW,195,2.0,4.0,80,0.00,,,0.00,Wunderground v.1.15,2013-07-05 23:25:00,
2013-07-05 19:30:00,79.5,73.2,30.01,SSW,213,2.0,4.0,81,0.00,,,0.00,Wunderground v.1.15,2013-07-05 23:30:00,
2013-07-05 19:35:00,79.6,72.9,30.02,WSW,249,2.0,5.0,80,0.00,,,0.00,Wunderground v.1.15,2013-07-05 23:35:00,
2013-07-05 19:45:00,79.2,72.9,30.02,SSW,210,4.0,4.0,81,0.00,,,0.00,Wunderground v.1.15,2013-07-05 23:45:00,
2013-07-05 19:50:00,79.0,72.7,30.03,South,188,5.0,5.0,81,0.00,,,0.00,Wunderground v.1.15,2013-07-05 23:50:00,
2013-07-05 19:55:00,78.7,72.4,30.03,NNW,344,4.0,5.0,81,0.00,,,0.00,Wunderground v.1.15,2013-07-05 23:55:00,
2013-07-05 20:00:00,78.3,72.7,30.03,NNE,15,3.0,5.0,83,0.00,,,0.00,Wunderground v.1.15,2013-07-06 00:00:00,
2013-07-05 20:05:00,78.2,73.0,30.02,NE,42,3.0,5.0,84,0.00,,,0.00,Wunderground v.1.15,2013-07-06 00:05:00,
2013-07-05 20:15:00,78.1,72.9,30.02,NE,38,1.0,4.0,84,0.00,,,0.00,Wunderground v.1.15,2013-07-06 00:15:00,
2013-07-05 20:20:00,78.1,73.2,30.02,NE,36,1.0,1.0,85,0.00,,,0.00,Wunderground v.1.15,2013-07-06 00:20:00,
2013-07-05 20:25:00,77.9,73.0,30.02,NE,36,0.0,4.0,85,0.00,,,0.00,Wunderground v.1.15,2013-07-06 00:25:00,
2013-07-05 20:35:00,77.5,73.3,30.02,NE,36,0.0,4.0,87,0.00,,,0.00,Wunderground v.1.15,2013-07-06 00:35:00,
2013-07-05 20:40:00,77.4,73.2,30.01,NE,36,0.0,4.0,87,0.00,,,0.00,Wunderground v.1.15,2013-07-06 00:40:00,
2013-07-05 20:50:00,77.1,73.3,30.01,NE,36,0.0,4.0,88,0.00,,,0.00,Wunderground v.1.15,2013-07-06 00:50:00,
2013-07-05 20:55:00,76.9,73.1,30.02,NE,36,0.0,4.0,88,0.00,,,0.00,Wunderground v.1.15,2013-07-06 00:55:00,
2013-07-05 21:00:00,76.6,73.1,30.02,NE,36,0.0,4.0,89,0.00,,,0.00,Wunderground v.1.15,2013-07-06 01:00:00,
2013-07-05 21:05:00,76.4,73.2,30.02,NE,36,0.0,4.0,90,0.00,,,0.00,Wunderground v.1.15,2013-07-06 01:05:00,
2013-07-05 21:10:00,76.0,72.9,30.02,NE,36,0.0,4.0,90,0.00,,,0.00,Wunderground v.1.15,2013-07-06 01:10:00,
2013-07-05 21:15:00,75.5,72.7,30.02,ENE,63,0.0,4.0,91,0.00,,,0.00,Wunderground v.1.15,2013-07-06 01:15:00,
2013-07-05 21:25:00,75.2,72.7,30.02,NW,319,0.0,4.0,92,0.00,,,0.00,Wunderground v.1.15,2013-07-06 01:25:00,
2013-07-05 21:30:00,75.1,72.6,30.02,NW,319,0.0,4.0,92,0.00,,,0.00,Wunderground v.1.15,2013-07-06 01:30:00,
2013-07-05 21:35:00,75.0,72.5,30.03,NW,319,0.0,4.0,92,0.00,,,0.00,Wunderground v.1.15,2013-07-06 01:35:00,
2013-07-05 21:40:00,75.1,72.6,30.03,NW,319,0.0,4.0,92,0.00,,,0.00,Wunderground v.1.15,2013-07-06 01:40:00,
2013-07-05 21:45:00,75.1,72.6,30.03,NW,319,0.0,4.0,92,0.00,,,0.00,Wunderground v.1.15,2013-07-06 01:45:00,
2013-07-05 21:55:00,74.9,72.4,30.03,NW,319,0.0,4.0,92,0.00,,,0.00,Wunderground v.1.15,2013-07-06 01:55:00,
2013-07-05 22:00:00,74.7,72.2,30.03,NW,319,0.0,4.0,92,0.00,,,0.00,Wunderground v.1.15,2013-07-06 02:00:00,
2013-07-05 22:05:00,74.5,72.0,30.03,SW,214,0.0,4.0,92,0.00,,,0.00,Wunderground v.1.15,2013-07-06 02:05:00,
2013-07-05 22:10:00,74.1,71.6,30.03,SSW,213,0.0,4.0,92,0.00,,,0.00,Wunderground v.1.15,2013-07-06 02:10:00,
2013-07-05 22:15:00,73.9,71.4,30.03,SSW,213,0.0,4.0,92,0.00,,,0.00,Wunderground v.1.15,2013-07-06 02:15:00,
2013-07-05 22:20:00,73.7,71.2,30.03,SSW,213,0.0,4.0,92,0.00,,,0.00,Wunderground v.1.15,2013-07-06 02:20:00,
2013-07-05 22:30:00,73.4,70.9,30.03,SSW,213,0.0,4.0,92,0.00,,,0.00,Wunderground v.1.15,2013-07-06 02:30:00,
2013-07-05 22:35:00,73.3,70.8,30.03,SSW,213,0.0,4.0,92,0.00,,,0.00,Wunderground v.1.15,2013-07-06 02:35:00,
2013-07-05 22:40:00,73.3,71.2,30.03,SSW,213,0.0,4.0,93,0.00,,,0.00,Wunderground v.1.15,2013-07-06 02:40:00,
2013-07-05 22:45:00,73.2,71.1,30.03,SSW,213,0.0,4.0,93,0.00,,,0.00,Wunderground v.1.15,2013-07-06 02:45:00,
2013-07-05 22:50:00,73.2,71.1,30.03,SSW,213,0.0,4.0,93,0.00,,,0.00,Wunderground v.1.15,2013-07-06 02:50:00,
2013-07-05 23:00:00,73.3,71.2,30.03,SSW,213,0.0,4.0,93,0.00,,,0.00,Wunderground v.1.15,2013-07-06 03:00:00,
2013-07-05 23:05:00,73.1,71.0,30.03,SSW,213,0.0,4.0,93,0.00,,,0.00,Wunderground v.1.15,2013-07-06 03:05:00,
2013-07-05 23:10:00,72.9,71.1,30.02,SSW,213,0.0,4.0,94,0.00,,,0.00,Wunderground v.1.15,2013-07-06 03:10:00,
2013-07-05 23:15:00,72.9,71.1,30.02,SSW,213,0.0,4.0,94,0.00,,,0.00,Wunderground v.1.15,2013-07-06 03:15:00,
2013-07-05 23:20:00,72.8,71.0,30.02,SSW,213,0.0,4.0,94,0.00,,,0.00,Wunderground v.1.15,2013-07-06 03:20:00,
2013-07-05 23:25:00,72.7,70.9,30.02,SSW,213,0.0,4.0,94,0.00,,,0.00,Wunderground v.1.15,2013-07-06 03:25:00,
2013-07-05 23:35:00,72.6,70.8,30.02,SSW,213,0.0,4.0,94,0.00,,,0.00,Wunderground v.1.15,2013-07-06 03:35:00,
2013-07-05 23:40:00,72.6,71.1,30.02,SSW,213,0.0,4.0,95,0.00,,,0.00,Wunderground v.1.15,2013-07-06 03:40:00,
2013-07-05 23:45:00,72.5,71.0,30.02,SSW,213,0.0,4.0,95,0.00,,,0.00,Wunderground v.1.15,2013-07-06 03:45:00,
2013-07-05 23:55:00,72.4,70.9,30.02,SSW,213,0.0,4.0,95,0.00,,,0.00,Wunderground v.1.15,2013-07-06 03:55:00,